Погода в Новой Кармале

Россия / Самарская область     54°22′46″N   50°19′24″E
темп.,
°C
ветер,
м/с
пор.,
м/с
влажн.,
%
обл.,
%
осадки,
мм/ч
давл.,
гПа
погр.,
м
7 мая, пт
пт701:00+10ююз2676100 0.0 1017118
04:00+9ю247790 0.0 101772
07:00+11ю3972100 0.0 1017272
10:00+16ю5953100 0.0 1017861
13:00+18ююз6942100 0.0 10162226
16:00+18ююз5842100 0.0 10152472
19:00+15ю3758100 0.0 1015223
22:00+11ю377091 0.0 1016139
8 мая, сб
сб801:00+11зюз227399 0.0 101639
04:00+10ссз1189100 0.0 101723
07:00+11вюв1186100 0.0 1018166
10:00+13вюв1275100 0.0 1017311
13:00+17ю355693 0.3 10171205
16:00+19юв344979 0.4 10161865
19:00+15ююв366763 0.0 1015184
22:00+12юв23745 0.0 101545
9 мая, вс
вс901:00+11юв3117694 0.0 1015211
04:00+12юв3127192 0.0 1014309
07:00+13ююв31170100 0.0 1014391
10:00+18ю61052100 0.0 1014874
13:00+21ю5847100 0.0 10141744
16:00+21ююз464198 0.0 10141968
19:00+19ю1156100 0.0 101511
22:00+14ссз3471100 0.0 1016102
10 мая, пн
пн1001:00+12сз51187100 0.0 1018486
04:00+11св3795100 1.3 1020203
07:00+11с4693100 0.0 1022372
10:00+10с5788100 0.1 1025453
13:00+11с5777100 0.0 1026559
16:00+12с5770100 0.0 1027650
19:00+11ссв397553 0.0 1028593
22:00+6ссв27950 0.3 1029182
11 мая, вт
вт1101:00+7ссв34905 0.0 103077
04:00+6св37890 0.0 1031115
07:00+9всв37748 0.0 1032219
10:00+14всв465112 0.0 10331002
13:00+17всв45415 0.0 10321301
16:00+18св45405 0.0 10311402
19:00+15св36585 0.0 1031181
22:00+11всв2366100 0.0 103132